Regional Weather Roundup
Issued by NWS

Home | Current Version | Previous Version | Graphics & Text | Print | Product List | Glossary On
Versions: 1 2 3 4 5 6 7 8 9 10 11 12 13 14 15 16 17 18 19 20 21 22 23 24 25 26 27 28 29 30 31 32 33 34 35 36 37 38 39 40 41 42 43 44 45 46 47 48 49 50
264
ASUS45 KCYS 262010
RWRWY

WYOMING REGIONAL WEATHER ROUNDUP
NATIONAL WEATHER SERVICE CHEYENNE WY
200 PM MDT THU MAY 26 2016

NOTE:  "FAIR" INDICATES FEW OR NO CLOUDS BELOW 12,000 FEET
WITH NO SIGNIFICANT WEATHER AND/OR OBSTRUCTIONS TO VISIBILITY.

WYZ001-262100-
YELLOWSTONE NATIONAL PARK

CITY           SKY/WX    TMP DP  RH WIND       PRES   REMARKS
LK YELLOWSTONE   N/A     44  32  62 W8        30.09R
W YELLOWSTONE  NOT AVBL

$$
WYZ002>013-054>058-071-098>099-262100-
NORTHERN WYOMING

CITY           SKY/WX    TMP DP  RH WIND       PRES   REMARKS
JACKSON        PTSUNNY   57  34  41 S3        30.01F
CODY           CLOUDY    55  41  58 N20       29.98R
GREYBULL       FAIR      65  42  43 NW9       29.93F
WORLAND        FAIR      63  38  39 VRB6      29.94F
SHERIDAN       PTSUNNY   63  44  50 NW12      29.92F
BUFFALO        CLOUDY    60  41  49 N13G22    29.96S
GILLETTE       FAIR      64  37  36 NW10G22   29.93F
HULETT         FAIR      64  39  39 W10G20    29.93S
NEWCASTLE      FAIR      64  30  27 NW5G24    29.92F

$$
WYZ014>020-022>026-101>103-262100-
CENTRAL WYOMING

CITY           SKY/WX    TMP DP  RH WIND       PRES   REMARKS
BIG PINEY      PTSUNNY   57  28  33 NW10G21   30.03F
PINEDALE       MOCLDY    55  28  35 N10       30.03S
DUBOIS         FAIR      57  21  24 W8G17     29.99F
LANDER         FAIR      64  33  31 E12       29.95F
RIVERTON       FAIR      63  30  28 VRB3      29.96F
CASPER         PTSUNNY   60  37  42 N25G31    29.95F
DOUGLAS          N/A    N/A N/A N/A MISG      29.93F

$$
WYZ021-027>030-104>119-262100-
SOUTHERN WYOMING

CITY           SKY/WX    TMP DP  RH WIND       PRES   REMARKS
EVANSTON       FAIR      58  32  37 MISG      30.03F
KEMMERER         N/A     59  32  36 W6        30.04F
FORT BRIDGER   CLEAR     57  32  38 CALM      30.07F
ROCK SPRINGS   FAIR      59  28  30 VRB7      30.00F
DIXON          FAIR      63  30  29 N9        29.97F
RAWLINS        FAIR      59  27  29 MISG      29.98F
SARATOGA       FAIR      57  30  35 NW8       29.99S
LARAMIE        PTSUNNY   55  35  47 E9        29.97F
CHEYENNE       LGT RAIN  56  36  47 E20       29.95S
TORRINGTON     PTSUNNY   66  41  40 E6        29.89F
PINE BLUFFS    MOCLDY    59  37  44 E9        29.93F

$$




USA.gov is the U.S. government's official web portal to all federal, state and local government web resources and services.